Stations météo

Publicité
Cap Corse, France (7785): Température de l'air & dewpoint: 22.05.2020 08:00:00 - 28.05.2020 08:00:00 (CEST)Cap Corse, France (7785): Vitesse du vent & gusts: 22.05.2020 08:00:00 - 28.05.2020 08:00:00 (CEST)Cap Corse, France (7785): Direction du vent: 22.05.2020 08:00:00 - 28.05.2020 08:00:00 (CEST)Cap Corse, France (7785): reduced air pressure: 22.05.2020 08:00:00 - 28.05.2020 08:00:00 (CEST)Cap Corse, France (7785): visibility: 22.05.2020 08:00:00 - 28.05.2020 08:00:00 (CEST)Cap Corse, France (7785): Quantités de précipitations: 22.05.2020 08:00:00 - 28.05.2020 08:00:00 (CEST)
Date & Time tt [°C] td [°C] ff [km/h] ff [knt] fx [km/h] fx [knt] dd ppp [hPa] vv [km] rr [mm]
28.05.2020 08:00:00 20,7 8,0 13 7 26 14 SSW 1026,2 22 0,0
28.05.2020 07:00:00 21,3 9,5 6 4 34 18 NNW 1026,3 - 0,0
28.05.2020 06:00:00 19,0 8,3 21 11 32 17 SE 1026,5 - 0,0
28.05.2020 05:00:00 18,1 11,2 23 12 32 18 SE 1026,7 20 0,0
28.05.2020 04:00:00 17,7 11,7 21 11 33 18 SE 1027,1 - 0,0
28.05.2020 03:00:00 18,3 9,4 23 12 37 20 SE 1027,3 - 0,0
28.05.2020 02:00:00 18,3 9,4 24 13 31 17 SE 1027,5 - 0,0
28.05.2020 01:00:00 18,5 8,5 19 10 27 15 ESE 1027,8 - 0,0
28.05.2020 00:00:00 18,4 9,2 16 9 25 13 ESE 1027,9 - 0,0
27.05.2020 23:00:00 18,2 6,1 12 6 17 9 ESE 1028,0 - 0,0
27.05.2020 22:00:00 18,3 7,7 10 6 16 9 ESE 1027,6 - 0,0
27.05.2020 21:00:00 18,0 11,1 9 5 13 7 E 1027,3 - 0,0
27.05.2020 20:00:00 19,9 11,4 7 4 11 6 E 1027,1 - 0,0
27.05.2020 19:00:00 20,7 10,8 8 5 11 6 E 1027,2 - 0,0
27.05.2020 18:00:00 21,7 10,5 7 4 23 12 ENE 1027,4 - 0,0
27.05.2020 17:00:00 22,4 8,5 21 11 39 21 E 1027,7 22 0,0
27.05.2020 16:00:00 23,2 5,6 29 15 45 24 E 1027,9 - 0,0
27.05.2020 15:00:00 23,5 6,3 27 14 51 27 E 1028,3 - 0,0
27.05.2020 14:00:00 23,1 6,8 27 15 51 27 E 1028,7 22 0,0
27.05.2020 13:00:00 22,1 7,9 37 20 53 28 E 1028,8 - 0,0
27.05.2020 12:00:00 22,3 7,3 - - - - - 1028,8 - 0,0
27.05.2020 11:00:00 22,8 6,9 - - - - - 1028,8 22 0,0
27.05.2020 10:00:00 21,9 5,7 - - - - - 1028,4 - 0,0
27.05.2020 09:00:00 21,6 6,7 - - - - - 1028,1 - 0,0
27.05.2020 08:00:00 20,6 6,5 - - - - - 1028,0 - 0,0
27.05.2020 07:00:00 19,5 5,2 - - - - - 1027,5 - 0,0
27.05.2020 06:00:00 19,3 5,0 - - - - - 1026,9 - 0,0
27.05.2020 05:00:00 19,9 4,4 - - - - - 1026,9 - 0,0
27.05.2020 04:00:00 19,7 5,0 - - - - - 1026,4 - 0,0
27.05.2020 03:00:00 20,1 3,7 - - - - - 1026,4 - 0,0
27.05.2020 02:00:00 20,1 7,1 - - - - - 1026,3 - 0,0
27.05.2020 01:00:00 20,3 10,7 - - - - - 1026,6 - 0,0
27.05.2020 00:00:00 21,0 9,3 - - - - - 1026,0 - 0,0
26.05.2020 23:00:00 20,3 14,4 - - - - - 1025,7 - 0,0
26.05.2020 22:00:00 21,0 12,4 - - - - - 1024,8 - 0,0
26.05.2020 21:00:00 21,2 8,5 - - - - - 1024,1 - 0,0
26.05.2020 20:00:00 23,4 8,7 - - - - - 1023,6 16 0,0
26.05.2020 19:00:00 25,3 9,2 - - - - - 1023,5 - 0,0
26.05.2020 18:00:00 25,3 6,9 - - - - - 1023,5 - 0,0
26.05.2020 17:00:00 25,9 9,3 - - - - - 1023,4 - 0,0
26.05.2020 16:00:00 26,6 10,3 - - - - - 1023,8 - 0,0
26.05.2020 15:00:00 24,8 12,4 - - - - - 1024,1 - 0,0
26.05.2020 14:00:00 23,1 14,6 - - - - - 1024,5 - 0,0
26.05.2020 13:00:00 22,9 16,0 - - - - - 1024,9 - 0,0
26.05.2020 12:00:00 22,6 16,6 - - - - - 1025,2 - 0,0
26.05.2020 11:00:00 22,7 14,8 - - - - - 1025,0 - 0,0
26.05.2020 10:00:00 23,1 14,6 - - - - - 1024,5 - 0,0
26.05.2020 09:00:00 23,1 10,5 - - - - - 1024,3 - 0,0
26.05.2020 08:00:00 22,5 10,9 - - - - - 1024,1 - 0,0
26.05.2020 07:00:00 22,3 10,8 - - - - - 1023,9 - 0,0
26.05.2020 06:00:00 18,4 8,4 - - - - - 1023,7 - 0,0
26.05.2020 05:00:00 18,6 7,7 - - - - - 1023,7 - 0,0
26.05.2020 04:00:00 18,1 7,5 - - - - - 1023,9 - 0,0
26.05.2020 03:00:00 17,5 7,5 - - - - - 1024,0 - 0,0
26.05.2020 02:00:00 17,8 6,3 - - - - - 1024,1 - 0,0
26.05.2020 01:00:00 18,9 2,7 - - - - - 1024,2 - 0,0
26.05.2020 00:00:00 19,3 2,6 - - - - - 1024,0 - 0,0
25.05.2020 23:00:00 21,3 2,0 - - - - - 1023,7 - 0,0
25.05.2020 22:00:00 20,4 3,6 - - - - - 1023,4 - 0,0
25.05.2020 21:00:00 19,6 5,3 - - - - - 1022,9 - 0,0
25.05.2020 20:00:00 20,4 13,1 - - - - - 1022,7 - 0,0
25.05.2020 19:00:00 20,9 15,2 - - - - - 1022,8 - 0,0
25.05.2020 18:00:00 21,9 13,0 - - - - - 1023,0 - 0,0
25.05.2020 17:00:00 22,1 11,8 - - - - - 1023,4 - 0,0
25.05.2020 16:00:00 22,4 12,3 - - - - - 1024,0 - 0,0
25.05.2020 15:00:00 22,2 15,3 - - - - - 1024,3 - 0,0
25.05.2020 14:00:00 22,2 13,8 - - - - - 1024,4 20 0,0
25.05.2020 13:00:00 22,2 14,1 - - - - - 1024,6 - 0,0
25.05.2020 12:00:00 22,2 13,5 - - - - - 1024,9 - 0,0
25.05.2020 11:00:00 22,0 12,3 - - - - - 1024,9 30 0,0
25.05.2020 10:00:00 21,4 13,1 - - - - - 1024,9 - 0,0
25.05.2020 09:00:00 21,7 15,8 - - - - - 1024,9 - 0,0
25.05.2020 08:00:00 21,9 13,3 - - - - - 1024,5 - 0,0
25.05.2020 07:00:00 20,5 14,8 - - - - - 1024,1 - 0,0
25.05.2020 06:00:00 18,9 14,8 - - - - - 1023,9 - 0,0
25.05.2020 05:00:00 18,8 14,9 - - - - - 1023,9 - 0,0
25.05.2020 04:00:00 18,8 14,9 - - - - - 1024,0 - 0,0
25.05.2020 03:00:00 18,5 12,7 - - - - - 1024,3 - 0,0
25.05.2020 02:00:00 17,6 11,6 - - - - - 1024,4 - 0,0
25.05.2020 01:00:00 19,0 11,1 - - - - - 1024,5 - 0,0
25.05.2020 00:00:00 19,2 9,4 - - - - - 1024,5 - 0,0
24.05.2020 23:00:00 18,7 9,5 - - - - - 1024,5 - 0,0
24.05.2020 22:00:00 17,7 10,6 - - - - - 1024,2 - 0,0
24.05.2020 21:00:00 18,0 14,1 - - - - - 1023,7 - 0,0
24.05.2020 20:00:00 20,4 14,7 - - - - - 1023,4 - 0,0
24.05.2020 19:00:00 21,7 14,8 - - - - - 1023,0 - 0,0
24.05.2020 18:00:00 21,7 15,8 - - - - - 1023,0 - 0,0
24.05.2020 17:00:00 22,5 15,6 - - - - - 1023,0 25 0,0
24.05.2020 16:00:00 21,4 15,9 - - - - - 1023,3 - 0,0
24.05.2020 15:00:00 22,4 16,0 - - - - - 1023,6 - 0,0
24.05.2020 14:00:00 21,6 15,4 - - - - - 1023,8 - 0,0
24.05.2020 13:00:00 22,3 15,6 - - - - - 1023,7 - 0,0
24.05.2020 12:00:00 22,3 15,6 - - - - - 1023,6 - 0,0
24.05.2020 11:00:00 21,6 15,2 - - - - - 1023,7 20 0,0
24.05.2020 10:00:00 21,3 15,8 - - - - - 1023,6 - 0,0
24.05.2020 09:00:00 20,7 15,9 - - - - - 1022,1 - 0,0
24.05.2020 08:00:00 20,7 15,3 - - - - - 1022,2 20 0,0
24.05.2020 07:00:00 20,7 13,4 - - - - - 1021,5 - 0,0
24.05.2020 06:00:00 20,1 14,9 - - - - - 1020,7 - 0,0
24.05.2020 05:00:00 20,0 16,0 - - - - - 1020,4 - 0,0
24.05.2020 04:00:00 20,5 15,9 - - - - - 1021,1 - 0,0
24.05.2020 03:00:00 21,3 15,6 - - - - - 1021,6 - 0,0
24.05.2020 02:00:00 22,8 15,6 - - - - - 1021,4 - 0,0
24.05.2020 01:00:00 23,9 11,9 - - - - - 1021,4 - 0,0
24.05.2020 00:00:00 23,1 14,1 - - - - - 1021,8 - 0,0
23.05.2020 23:00:00 23,2 9,6 - - - - - 1022,4 - 0,0
23.05.2020 22:00:00 23,3 8,6 - - - - - 1021,9 - 0,0
23.05.2020 21:00:00 21,4 12,0 - - - - - 1022,4 - 0,0
23.05.2020 20:00:00 22,1 12,1 - - - - - 1022,7 - 0,0
23.05.2020 19:00:00 23,4 11,1 - - - - - 1022,8 - 0,0
23.05.2020 18:00:00 24,2 12,2 - - - - - 1023,4 - 0,0
23.05.2020 17:00:00 24,2 11,5 - - - - - 1023,6 25 0,0
23.05.2020 16:00:00 24,8 11,0 - - - - - 1024,4 - 0,0
23.05.2020 15:00:00 25,3 10,7 - - - - - 1025,0 - 0,0
23.05.2020 14:00:00 25,4 10,8 - - - - - 1025,5 - 0,0
23.05.2020 13:00:00 25,1 11,6 - - - - - 1025,9 - 0,0
23.05.2020 12:00:00 24,6 11,9 - - - - - 1025,9 - 0,0
23.05.2020 11:00:00 24,7 10,6 - - - - - 1025,7 - 0,0
23.05.2020 10:00:00 24,7 9,8 - - - - - 1025,7 - 0,0
23.05.2020 09:00:00 23,3 13,5 - - - - - 1025,6 - 0,0
23.05.2020 08:00:00 23,8 11,5 - - - - - 1025,3 20 0,0
23.05.2020 07:00:00 22,8 9,2 - - - - - 1025,1 - 0,0
23.05.2020 06:00:00 20,9 8,8 - - - - - 1024,8 - 0,0
23.05.2020 05:00:00 20,8 9,1 - - - - - 1024,7 - 0,0
23.05.2020 04:00:00 20,9 8,5 - - - - - 1025,0 - 0,0
23.05.2020 03:00:00 20,7 8,3 - - - - - 1025,3 - 0,0
23.05.2020 02:00:00 20,6 8,2 - - - - - 1025,5 - 0,0
23.05.2020 01:00:00 19,9 10,6 - - - - - 1025,7 - 0,0
23.05.2020 00:00:00 20,1 12,3 - - - - - 1025,7 - 0,0
22.05.2020 23:00:00 20,3 11,5 - - - - - 1025,4 - 0,0
22.05.2020 22:00:00 21,4 10,2 - - - - - 1025,4 - 0,0
22.05.2020 21:00:00 20,5 12,7 - - - - - 1025,0 - 0,0
22.05.2020 20:00:00 21,8 13,4 - - - - - 1024,8 - 0,0
22.05.2020 19:00:00 23,6 11,9 - - - - - 1024,1 - 0,0
22.05.2020 18:00:00 24,9 12,8 - - - - - 1023,8 - 0,0
22.05.2020 17:00:00 25,6 15,6 - - - - - 1024,1 - 0,0
22.05.2020 16:00:00 24,7 12,6 - - - - - 1024,5 - 0,0
22.05.2020 15:00:00 24,2 12,8 - - - - - 1024,8 - 0,0
22.05.2020 14:00:00 24,3 11,3 - - - - - 1024,8 - 0,0
22.05.2020 13:00:00 24,6 15,0 - - - - - 1024,5 - 0,0
22.05.2020 12:00:00 23,2 16,5 - - - - - 1024,2 - 0,0
22.05.2020 11:00:00 21,9 15,5 - - - - - 1024,3 25 0,0
22.05.2020 10:00:00 21,8 14,2 - - - - - 1024,1 - 0,0
22.05.2020 09:00:00 21,8 15,4 - - - - - 1023,5 - 0,0
22.05.2020 08:00:00 22,6 12,8 - - - - - 1023,0 25 0,0

tt = Température de l'air
td = dewpoint
ff = Vitesse du vent
fx = gusts
dd = Direction du vent
ppp = reduced air pressure
vv = visibility
rr = Quantités de précipitations

stations d'obs. à proximité